Hourly Weather Bolshoe Koptevo

Today, 1 August, Sunday

Time Temperature Precipitation Wind Pressure Humidity
00:00 +15°C° 0 mm 2 mps 739 mmHg 83%
01:00 +15°C° 0 mm 2 mps 739 mmHg 85%
02:00 +15°C° 0 mm 2 mps 739 mmHg 86%
03:00 +15°C° 0 mm 2 mps 739 mmHg 84%
04:00 +15°C° 0 mm 2 mps 739 mmHg 83%
05:00 +16°C° 0 mm 2 mps 739 mmHg 81%
06:00 +17°C° 0 mm 2 mps 739 mmHg 75%
07:00 +19°C° 0 mm 3 mps 739 mmHg 68%
08:00 +20°C° 0 mm 3 mps 739 mmHg 62%
09:00 +20°C° 0.1 mm 3 mps 739 mmHg 67%
10:00 +20°C° 0.1 mm 4 mps 739 mmHg 72%
11:00 +20°C° 0.1 mm 4 mps 739 mmHg 77%
12:00 +21°C° 0 mm 4 mps 739 mmHg 75%
13:00 +22°C° 0 mm 4 mps 739 mmHg 73%
14:00 +22°C° 0 mm 4 mps 739 mmHg 71%
15:00 +22°C° 0.1 mm 4 mps 739 mmHg 72%
16:00 +23°C° 0.1 mm 4 mps 738 mmHg 73%
17:00 +23°C° 0.1 mm 4 mps 738 mmHg 74%
18:00 +22°C° 0.1 mm 3 mps 738 mmHg 81%
19:00 +20°C° 0.1 mm 3 mps 738 mmHg 88%
20:00 +19°C° 0.1 mm 2 mps 738 mmHg 94%
21:00 +18°C° 0 mm 2 mps 738 mmHg 94%
22:00 +18°C° 0 mm 2 mps 739 mmHg 94%
23:00 +17°C° 0 mm 2 mps 739 mmHg 94%

Tomorrow, 2 August, Monday

Time Temperature Precipitation Wind Pressure Humidity
00:00 +17°C° 0 mm 2 mps 739 mmHg 92%
01:00 +16°C° 0 mm 2 mps 739 mmHg 90%
02:00 +16°C° 0 mm 1 mps 739 mmHg 88%
03:00 +16°C° 0 mm 1 mps 739 mmHg 86%
04:00 +16°C° 0 mm 1 mps 739 mmHg 85%
05:00 +16°C° 0 mm 1 mps 739 mmHg 84%
06:00 +19°C° 0 mm 1 mps 738 mmHg 75%
07:00 +21°C° 0 mm 2 mps 738 mmHg 65%
08:00 +24°C° 0 mm 2 mps 738 mmHg 56%
09:00 +25°C° 0 mm 3 mps 738 mmHg 54%
10:00 +27°C° 0 mm 3 mps 737 mmHg 51%
11:00 +28°C° 0 mm 4 mps 737 mmHg 48%
12:00 +27°C° 1 mm 4 mps 737 mmHg 61%
13:00 +25°C° 1 mm 4 mps 736 mmHg 74%
14:00 +22°C° 1 mm 4 mps 736 mmHg 87%
15:00 +22°C° 1.3 mm 4 mps 735 mmHg 87%
16:00 +22°C° 1.3 mm 4 mps 734 mmHg 87%
17:00 +22°C° 1.3 mm 4 mps 734 mmHg 87%
18:00 +21°C° 1.1 mm 3 mps 733 mmHg 90%
19:00 +20°C° 1.1 mm 3 mps 733 mmHg 93%
20:00 +18°C° 1.1 mm 2 mps 733 mmHg 96%
21:00 +18°C° 1.3 mm 2 mps 733 mmHg 97%
22:00 +18°C° 1.3 mm 2 mps 733 mmHg 97%
23:00 +18°C° 1.3 mm 3 mps 734 mmHg 98%

Day after tomorrow, 3 August, Tuesday

Time Temperature Precipitation Wind Pressure Humidity
00:00 +17°C° 0.7 mm 2 mps 734 mmHg 98%
01:00 +17°C° 0.7 mm 2 mps 734 mmHg 98%
02:00 +16°C° 0.7 mm 2 mps 734 mmHg 97%
03:00 +16°C° 0 mm 2 mps 734 mmHg 97%
04:00 +16°C° 0 mm 2 mps 735 mmHg 97%
05:00 +16°C° 0 mm 2 mps 735 mmHg 97%
06:00 +16°C° 0.1 mm 2 mps 735 mmHg 96%
07:00 +16°C° 0.1 mm 2 mps 736 mmHg 96%
08:00 +16°C° 0.1 mm 3 mps 736 mmHg 96%
09:00 +17°C° 0.1 mm 3 mps 737 mmHg 89%
10:00 +18°C° 0.1 mm 3 mps 737 mmHg 82%
11:00 +20°C° 0.1 mm 3 mps 738 mmHg 75%
12:00 +20°C° 0.5 mm 3 mps 738 mmHg 74%
13:00 +20°C° 0.5 mm 3 mps 738 mmHg 74%
14:00 +20°C° 0.5 mm 4 mps 738 mmHg 73%
15:00 +21°C° 0.2 mm 3 mps 739 mmHg 69%
16:00 +21°C° 0.2 mm 3 mps 739 mmHg 65%
17:00 +21°C° 0.2 mm 3 mps 739 mmHg 61%
18:00 +20°C° 0 mm 3 mps 739 mmHg 63%
19:00 +19°C° 0 mm 2 mps 740 mmHg 66%
20:00 +18°C° 0 mm 2 mps 740 mmHg 68%
21:00 +17°C° 0 mm 2 mps 740 mmHg 72%
22:00 +16°C° 0 mm 2 mps 741 mmHg 75%
23:00 +15°C° 0 mm 2 mps 741 mmHg 79%

4 August, Wednesday

Time Temperature Precipitation Wind Pressure Humidity
00:00 +15°C° 0 mm 2 mps 741 mmHg 83%
01:00 +14°C° 0 mm 1 mps 742 mmHg 88%
02:00 +13°C° 0 mm 1 mps 742 mmHg 92%
03:00 +13°C° 0 mm 1 mps 742 mmHg 92%
04:00 +13°C° 0 mm 1 mps 743 mmHg 91%
05:00 +13°C° 0 mm 1 mps 743 mmHg 90%
06:00 +15°C° 0 mm 1 mps 743 mmHg 79%
07:00 +16°C° 0 mm 1 mps 744 mmHg 67%
08:00 +19°C° 0 mm 1 mps 744 mmHg 55%
09:00 +20°C° 0 mm 1 mps 744 mmHg 50%
10:00 +22°C° 0 mm 1 mps 744 mmHg 46%
11:00 +23°C° 0 mm 1 mps 744 mmHg 41%
12:00 +23°C° 0 mm 1 mps 744 mmHg 40%
13:00 +24°C° 0 mm 1 mps 745 mmHg 39%
14:00 +24°C° 0 mm 1 mps 745 mmHg 38%
15:00 +24°C° 0 mm 1 mps 745 mmHg 42%
16:00 +23°C° 0 mm 1 mps 745 mmHg 46%
17:00 +23°C° 0 mm 1 mps 745 mmHg 50%
18:00 +21°C° 0 mm 1 mps 745 mmHg 55%
19:00 +20°C° 0 mm 1 mps 745 mmHg 60%
20:00 +18°C° 0 mm 1 mps 745 mmHg 64%
21:00 +18°C° 0 mm 1 mps 745 mmHg 68%
22:00 +16°C° 0 mm 1 mps 745 mmHg 72%
23:00 +15°C° 0 mm 1 mps 746 mmHg 76%

5 August, Thursday

Time Temperature Precipitation Wind Pressure Humidity
00:00 +14°C° 0 mm 1 mps 746 mmHg 78%
01:00 +13°C° 0 mm 1 mps 746 mmHg 81%
02:00 +12°C° 0 mm 0 mps 746 mmHg 83%
03:00 +12°C° 0 mm 0 mps 746 mmHg 83%
04:00 +13°C° 0 mm 1 mps 746 mmHg 82%
05:00 +14°C° 0 mm 1 mps 746 mmHg 82%
06:00 +16°C° 0 mm 1 mps 746 mmHg 75%
07:00 +18°C° 0 mm 1 mps 746 mmHg 68%
08:00 +19°C° 0 mm 2 mps 746 mmHg 62%
09:00 +20°C° 0.1 mm 2 mps 746 mmHg 62%
10:00 +20°C° 0.1 mm 2 mps 746 mmHg 63%
11:00 +20°C° 0.1 mm 3 mps 745 mmHg 64%
12:00 +19°C° 1.2 mm 2 mps 745 mmHg 74%
13:00 +18°C° 1.2 mm 2 mps 745 mmHg 84%
14:00 +16°C° 1.2 mm 1 mps 746 mmHg 94%
15:00 +16°C° 1 mm 2 mps 745 mmHg 95%
16:00 +15°C° 1 mm 2 mps 745 mmHg 96%
17:00 +15°C° 1 mm 2 mps 745 mmHg 97%
18:00 +14°C° 0.8 mm 3 mps 744 mmHg 97%
19:00 +14°C° 0.8 mm 3 mps 744 mmHg 98%
20:00 +14°C° 0.8 mm 3 mps 744 mmHg 98%
21:00 +14°C° 0.2 mm 3 mps 743 mmHg 98%
22:00 +14°C° 0.2 mm 3 mps 743 mmHg 98%
23:00 +14°C° 0.2 mm 3 mps 743 mmHg 98%

6 August, Friday

Time Temperature Precipitation Wind Pressure Humidity
00:00 +14°C° 0 mm 3 mps 743 mmHg 98%
01:00 +14°C° 0 mm 3 mps 742 mmHg 98%
02:00 +14°C° 0 mm 3 mps 742 mmHg 98%
03:00 +16°C° 0 mm 3 mps 742 mmHg 98%
04:00 +16°C° 0 mm 3 mps 742 mmHg 98%
05:00 +15°C° 0 mm 4 mps 741 mmHg 98%
06:00 +15°C° 0.8 mm 4 mps 741 mmHg 98%
07:00 +15°C° 0.8 mm 4 mps 741 mmHg 98%
08:00 +15°C° 0.8 mm 4 mps 740 mmHg 98%
09:00 +17°C° 0.5 mm 4 mps 740 mmHg 96%
10:00 +16°C° 0.5 mm 5 mps 739 mmHg 95%
11:00 +17°C° 0.5 mm 5 mps 739 mmHg 93%
12:00 +20°C° 0 mm 5 mps 739 mmHg 82%
13:00 +22°C° 0 mm 5 mps 738 mmHg 70%
14:00 +26°C° 0 mm 5 mps 738 mmHg 59%
15:00 +25°C° 0.2 mm 5 mps 737 mmHg 61%
16:00 +25°C° 0.2 mm 4 mps 737 mmHg 63%
17:00 +25°C° 0.2 mm 4 mps 737 mmHg 66%
18:00 +23°C° 0.3 mm 4 mps 737 mmHg 69%
19:00 +22°C° 0.3 mm 3 mps 737 mmHg 73%
20:00 +21°C° 0.3 mm 3 mps 737 mmHg 76%
21:00 +20°C° 0.4 mm 2 mps 737 mmHg 83%
22:00 +19°C° 0.4 mm 2 mps 737 mmHg 90%
23:00 +19°C° 0.4 mm 1 mps 737 mmHg 96%
Show more

We Need Your Consent

Meteoprog and our Service Providers may store and access personal data such as cookies, device identifiers or other similar technologies on your device and process such data to personalise content and ads, as well as provide social media features and to analyse the traffic.

  • Store and/or access information on your device

    Cookies, device identifiers or other information can be stored or accessed on your device for the purposes indicated above.

  • Personalised ads and content, ad and content measurement, audience insights, and products development

    Ads and content can be personalised based on a profile. More data can be added to better personalise ads and content. Ad and content performance can be measured. Insights about the audience who saw the ads and content can be derived. Such data can be used to develop or improve user’s experience, systems and software.

By clicking ‘I Agree’ you will allow the use of indicated cookies, device identifiers, web beacons or other similar technologies. Your settings can be changed in the browser on your device.

For certain purposes, legitimate interests may be relied on, rather than consent. You can read more about this in our Privacy and Cookie Policy.